Terug naar catalogus

FENGYUN 1C DEB

ActiefLEO
NORAD 31899·DEBRIS·🇨🇳 China

Gelanceerd May 10, 1999 vanaf Taiyuan Satellite Launch Center

Loading…

Volgende Passages (komende 24 uur)

TLE

VersSource: Space-Track

Epoch: Sep 13, 2026, 03:56 UTC

1 31899U 99025CLA 26256.16415813  .00001218  00000-0  10117-2 0  9999
2 31899 102.0828  41.4657 0183203 218.2918 140.5099 13.84221932713608

Volg FENGYUN 1C DEB in realtime met AllMySat

Download on the App Store